GS0511 Weather Reports


time (UTC)temp
F
wind
direction
speed
knots
gust
knots
rain 1hr
in
rain 24hr
in
rain mn
in
humidity
%
barometer
mb
20260510104457 47 271 2.6 7.0 0.00 0.13 0.01 78 1012.5
20260510102957 47 282 1.7 3.5 0.00 0.13 0.01 79 1011.9
20260510101458 47 269 1.7 5.2 0.00 0.13 0.01 78 1011.8
20260510092958 47 299 0.0 0.9 0.00 0.13 0.01 78 1010.7
20260510091457 48 300 0.9 2.6 0.00 0.13 0.01 76 1011.0
20260510090001 48 285 0.9 2.6 0.01 0.13 0.01 77 1011.2
20260510084458 48 285 0.9 2.6 0.01 0.13 0.01 79 1010.6
20260510082958 48 309 0.9 3.5 0.01 0.13 0.01 80 1010.6
20260510081457 49 286 1.7 7.8 0.01 0.13 0.01 82 1010.5
20260510080000 50 301 1.7 5.2 0.00 0.12 0.00 88 1010.2
20260510074457 50 277 0.0 2.6 0.00 0.12 0.00 94 1010.0
20260510072957 50 258 0.9 2.6 0.00 0.12 0.00 94 1009.7
20260510071458 50 295 0.9 2.6 0.00 0.12 0.00 95 1009.7
20260510070001 50 261 1.7 3.5 0.00 0.12 0.00 95 1009.4
20260510064458 50 265 1.7 3.5 0.00 0.12 0.00 96 1009.2
20260510061458 47 159 0.0 0.9 0.00 0.12 0.00 96 1009.1
20260510054458 47 159 0.0 0.9 0.00 0.12 0.00 95 1009.0
20260510052958 48 159 0.0 0.9 0.00 0.12 0.00 95 1008.7
20260510051457 48 159 0.0 0.0 0.00 0.12 0.00 94 1008.7
20260510044456 49 159 0.0 0.0 0.00 0.12 0.00 94 1008.1
20260510041456 49 159 0.0 0.9 0.00 0.12 0.00 94 1008.1
20260510034500 49 159 0.0 0.9 0.00 0.12 0.12 93 1007.9
20260510033001 50 159 0.0 2.6 0.00 0.12 0.12 92 1007.8
20260510031500 50 159 0.0 1.7 0.00 0.12 0.12 91 1007.5
20260510024500 51 150 0.9 2.6 0.00 0.12 0.12 90 1007.2
20260510023000 52 212 0.0 1.7 0.00 0.12 0.12 90 1007.2
20260510021501 52 163 0.9 2.6 0.00 0.12 0.12 90 1007.0
20260510020004 52 203 0.9 2.6 0.00 0.12 0.12 90 1007.0
20260510014500 52 205 0.9 1.7 0.00 0.12 0.12 91 1006.2
20260510013000 52 214 0.9 1.7 0.01 0.12 0.12 91 1006.6
20260510010005 52 174 2.6 6.1 0.08 0.12 0.12 91 1005.9
20260510004501 52 184 2.6 6.1 0.12 0.12 0.12 90 1006.6
20260510003000 52 198 3.5 10.4 0.11 0.11 0.11 89 1006.9
20260510000005 56 277 7.8 20.0 0.04 0.04 0.04 81 1006.6
20260509234500 64 179 0.9 2.6 0.00 0.00 0.00 63 1004.7
20260509231503 64 164 0.9 4.3 0.00 0.00 0.00 61 1004.0
20260509230004 65 160 0.9 3.5 0.00 0.00 0.00 60 1004.2
20260509224500 65 198 2.6 5.2 0.00 0.00 0.00 59 1004.4
20260509223000 65 171 2.6 7.8 0.00 0.00 0.00 58 1004.4
20260509221500 65 180 3.5 7.0 0.00 0.00 0.00 58 1004.6
20260509220007 65 180 4.3 8.7 0.00 0.00 0.00 57 1004.5
20260509214459 65 199 3.5 7.8 0.00 0.00 0.00 56 1004.3
20260509210002 68 180 5.2 11.3 0.00 0.00 0.00 54 1004.4
20260509204459 68 175 6.1 13.0 0.00 0.00 0.00 55 1004.4
20260509202959 67 236 3.5 8.7 0.00 0.00 0.00 59 1004.2
20260509201459 66 221 4.3 9.6 0.00 0.00 0.00 59 1004.5
20260509200005 66 184 5.2 12.2 0.00 0.00 0.00 60 1004.8
20260509192959 65 211 5.2 13.9 0.00 0.00 0.00 62 1005.2
20260509191459 65 194 5.2 11.3 0.00 0.00 0.00 62 1005.2
20260509190006 66 136 3.5 7.8 0.00 0.00 0.00 63 1005.3
20260509184459 65 180 4.3 9.6 0.00 0.00 0.00 64 1005.6
20260509182959 65 109 5.2 9.6 0.00 0.00 0.00 59 1005.8
20260509181459 64 123 3.5 8.7 0.00 0.00 0.00 60 1006.0
20260509180002 65 229 4.3 8.7 0.00 0.00 0.00 54 1006.2
20260509174500 65 204 6.1 9.6 0.00 0.00 0.00 57 1006.2
20260509172959 64 229 3.5 9.6 0.00 0.00 0.00 59 1006.3
20260509171459 64 197 4.3 9.6 0.00 0.00 0.00 65 1006.4
20260509164459 62 182 2.6 7.8 0.00 0.00 0.00 71 1006.7
20260509162959 62 159 2.6 7.8 0.00 0.00 0.00 72 1007.0
20260509161459 60 69 2.6 5.2 0.00 0.00 0.00 74 1007.3
20260509154458 60 163 2.6 12.2 0.00 0.00 0.00 73 1007.6
20260509153000 59 215 1.7 5.2 0.00 0.00 0.00 75 1007.7
20260509151458 58 230 2.6 5.2 0.00 0.00 0.00 76 1007.7
20260509150002 58 185 2.6 6.1 0.00 0.00 0.00 77 1007.9
20260509144459 58 165 2.6 6.1 0.00 0.00 0.00 76 1007.9
20260509142958 58 188 2.6 4.3 0.00 0.00 0.00 78 1008.2
20260509141500 57 144 2.6 6.1 0.00 0.00 0.00 79 1008.1
20260509134459 56 127 2.6 7.0 0.00 0.00 0.00 80 1008.3
20260509132959 55 139 3.5 7.0 0.00 0.00 0.00 82 1008.6
20260509131458 54 199 4.3 7.0 0.00 0.00 0.00 83 1008.9
20260509130001 53 168 2.6 7.0 0.00 0.00 0.00 84 1008.9
20260509122958 50 173 1.7 4.3 0.00 0.03 0.00 86 1009.2
20260509120002 46 214 0.0 0.9 0.00 0.03 0.00 88 1009.1
20260509114458 44 201 0.0 0.0 0.00 0.03 0.00 90 1009.2
20260509112958 42 212 0.0 0.9 0.00 0.03 0.00 90 1009.2
20260509111458 41 303 0.0 0.0 0.00 0.03 0.00 90 1009.3